TimeCEST,TemperatureF,Dew PointF,Humidity,Sea Level PressureIn,VisibilityMPH,Wind Direction,Wind SpeedMPH,Gust SpeedMPH,PrecipitationIn,Events,Conditions,WindDirDegrees,DateUTC
12:55 AM,46.4,44.6,93,30.09,-9999.0,North,-9999.0,-,N/A,,Clear,0,2013-05-18 22:55:00
1:55 AM,46.4,44.6,93,30.09,-9999.0,North,-9999.0,-,N/A,,Clear,0,2013-05-18 23:55:00
2:00 AM,47,45,91,,9,SSW,18.4,,,,,200,2013-05-19 00:00:00
2:55 AM,46.4,44.6,93,30.09,-9999.0,North,-9999.0,-,N/A,,Clear,0,2013-05-19 00:55:00
5:55 AM,46.4,46.4,100,29.98,0.0,North,-9999.0,-,N/A,Fog,Fog,0,2013-05-19 03:55:00
6:55 AM,44.6,44.6,100,29.98,0.0,North,-9999.0,-,N/A,Fog,Fog,0,2013-05-19 04:55:00
7:55 AM,44.6,44.6,100,29.98,0.0,North,-9999.0,-,N/A,Fog,Fog,0,2013-05-19 05:55:00
8:00 AM,45,45,100,,0,SSW,16.1,,,,,200,2013-05-19 06:00:00
8:55 AM,44.6,44.6,100,30.01,0.0,North,-9999.0,-,N/A,Fog,Fog,0,2013-05-19 06:55:00
10:55 AM,42.8,42.8,100,30.01,0.0,North,-9999.0,-,N/A,Fog,Fog,0,2013-05-19 08:55:00
11:55 AM,41.0,41.0,100,30.01,0.0,North,-9999.0,-,N/A,Fog,Fog,0,2013-05-19 09:55:00
12:55 PM,41.0,41.0,100,30.04,0.0,North,-9999.0,-,N/A,Fog,Fog,0,2013-05-19 10:55:00
1:55 PM,41.0,41.0,100,30.04,-9999.0,North,-9999.0,-,N/A,,Mostly Cloudy,0,2013-05-19 11:55:00
2:00 PM,41,41,100,,12,West,18.4,,,,,270,2013-05-19 12:00:00
2:55 PM,41.0,39.2,93,30.04,-9999.0,North,-9999.0,-,N/A,,Scattered Clouds,0,2013-05-19 12:55:00
3:55 PM,41.0,39.2,93,30.04,-9999.0,North,-9999.0,-,N/A,,Scattered Clouds,0,2013-05-19 13:55:00
4:55 PM,42.8,39.2,87,30.06,-9999.0,North,-9999.0,-,N/A,,Scattered Clouds,0,2013-05-19 14:55:00
5:55 PM,41.0,41.0,100,30.06,-9999.0,North,-9999.0,-,N/A,,Scattered Clouds,0,2013-05-19 15:55:00
6:55 PM,41.0,41.0,100,30.06,-9999.0,North,-9999.0,-,N/A,,Partly Cloudy,0,2013-05-19 16:55:00
7:55 PM,39.2,39.2,100,30.06,-9999.0,North,-9999.0,-,N/A,,Mostly Cloudy,0,2013-05-19 17:55:00
8:00 PM,40,40,100,,12,West,27.6,,,,,270,2013-05-19 18:00:00
8:55 PM,39.2,39.2,100,30.06,0.0,North,-9999.0,-,N/A,Fog,Fog,0,2013-05-19 18:55:00
9:55 PM,37.4,37.4,100,30.06,0.0,North,-9999.0,-,N/A,Fog,Fog,0,2013-05-19 19:55:00
10:55 PM,37.4,37.4,100,30.09,0.0,North,-9999.0,-,N/A,Fog,Fog,0,2013-05-19 20:55:00
11:55 PM,37.4,37.4,100,30.09,0.0,North,-9999.0,-,N/A,Fog-Rain,Light Rain,0,2013-05-19 21:55:00